User: anonymous   Login
Location: Unspecified
(0.0000°N, 0.0000°E)
Time: 16:45:08
(UTC+00:00)
Language:

NAVSTAR 65 (USA 213) - Orbit

View from above orbital plane
View from above orbital plane
View from above satellite
View from above satellite

Ground track
Ground track

The orbit data is extracted from the following two-line orbital elements,

1 36585U 10022A   17142.14659806 -.00000038 +00000-0 +00000-0 0  9998
2 36585 055.9913 341.6564 0063452 044.9489 134.5179 02.00573776051135
Epoch (UTC): 22 May 2017 03:31:06
Eccentricity: 0.0063452
inclination: 55.9913°
perigee height: 20012 km
apogee height: 20349 km
right ascension of ascending node: 341.6564°
argument of perigee: 44.9489°
revolutions per day: 2.00573776
mean anomaly at epoch: 134.5179°
orbit number at epoch: 5113

The dashed part of the orbit path shows where the satellite is in the earth's shadow,  

DLR